Location: Bishop's University Astronomical Observatory
(45.3661°N, 71.8475°W)
Time: 19:41:01
(UTC-04:00)

CZ-4C R/B - Visible Passes

Search period start: 31 July 2014 00:00
Search period end: 10 August 2014 00:00
Orbit: 792 x 1211 km, 63.4° (Epoch: 30 July)

Date Brightness Start Highest point End Pass type
(mag) Time Alt. Az. Time Alt. Az. Time Alt. Az.
31 Jul 4.9 01:12:42 10° NNW 01:17:48 23° NNE 01:23:17 10° ENE visible
31 Jul 3.2 03:00:54 10° NW 03:07:40 64° NE 03:15:02 10° SE visible
31 Jul 3.4 04:49:53 10° NW 04:56:02 34° WSW 05:02:34 10° S visible
31 Jul 5.2 22:06:16 10° WNW 22:10:19 18° NNW 22:14:39 10° NNE visible
31 Jul 5.2 23:57:37 10° NNW 00:01:35 17° N 00:05:46 10° NE visible
01 Aug 4.3 01:46:14 10° NNW 01:52:15 34° NE 01:58:46 10° E visible
01 Aug 2.7 03:34:32 10° NW 03:41:25 75° SW 03:48:53 10° SSE visible
01 Aug 4.6 20:49:23 10° W 20:54:18 28° NNW 20:59:41 10° NNE visible
01 Aug 5.2 22:41:34 10° NW 22:45:09 16° N 22:48:56 10° NNE visible
02 Aug 4.9 00:31:29 10° NNW 00:36:21 21° NNE 00:41:32 10° ENE visible
02 Aug 3.4 02:19:43 10° NNW 02:26:23 56° NE 02:33:38 10° ESE visible
02 Aug 3.2 04:08:30 10° NW 04:14:54 40° WSW 04:21:45 10° S visible
02 Aug 5.1 21:24:36 10° WNW 21:28:50 20° NNW 21:33:23 10° NNE visible
02 Aug 5.2 23:16:16 10° NNW 23:20:03 16° N 23:24:03 10° NE visible
03 Aug 4.4 01:05:03 10° NNW 01:10:52 31° NNE 01:17:08 10° E visible
03 Aug 2.7 02:53:18 10° NW 03:00:12 86° SW 03:07:43 10° SSE visible
03 Aug 4.0 04:43:15 10° WNW 04:48:06 20° WSW 04:53:10 10° SSW visible
03 Aug 5.1 21:59:58 10° NW 22:03:37 16° N 22:07:29 10° NNE visible
03 Aug 4.9 23:50:15 10° NNW 23:54:52 20° NNE 23:59:46 10° ENE visible
04 Aug 3.6 01:38:32 10° NNW 01:45:04 49° NE 01:52:11 10° ESE visible
04 Aug 3.0 03:27:10 10° NW 03:33:46 47° WSW 03:40:50 10° S visible
04 Aug 4.9 20:42:57 10° WNW 20:47:22 21° NNW 20:52:07 10° NNE visible
04 Aug 5.1 22:34:51 10° NNW 22:38:31 16° N 22:42:23 10° NE visible
05 Aug 4.5 00:23:52 10° NNW 00:29:27 28° NNE 00:35:28 10° E visible
05 Aug 2.8 02:12:05 10° NW 02:18:58 83° NE 02:26:18 11° SE visible
05 Aug 3.8 04:01:37 10° WNW 04:07:02 24° WSW 04:11:12 15° SSW visible
05 Aug 5.1 21:18:20 10° NW 21:22:06 17° N 21:26:06 10° NNE visible
05 Aug 4.9 23:09:00 10° NNW 23:13:22 18° NNE 23:18:01 10° ENE visible
06 Aug 3.7 00:57:22 10° NNW 01:03:45 43° NE 01:10:41 10° ESE visible
06 Aug 2.9 02:45:51 10° NW 02:52:36 55° WSW 02:55:56 32° S visible
06 Aug 4.5 04:38:55 10° W 04:39:59 10° WSW 04:40:58 10° WSW visible
06 Aug 5.1 21:53:24 10° NNW 21:56:59 15° N 22:00:46 10° NE visible
06 Aug 4.5 23:42:41 10° NNW 23:48:02 25° NNE 23:53:46 10° E visible
07 Aug 2.9 01:30:53 10° NW 01:37:43 73° NE 01:41:37 31° SE visible
07 Aug 3.6 03:20:06 10° WNW 03:25:56 29° WSW 03:26:41 28° WSW visible
07 Aug 5.0 20:36:41 10° NW 20:40:36 17° NNW 20:44:45 10° NNE visible
07 Aug 4.9 22:27:43 10° NNW 22:31:52 17° NNE 22:36:15 10° NE visible
08 Aug 3.9 00:16:11 10° NNW 00:22:24 38° NE 00:27:43 16° E visible
08 Aug 2.7 02:04:35 10° NW 02:11:25 65° WSW 02:12:49 54° S visible
08 Aug 4.4 03:55:50 10° W 03:57:55 13° W 03:57:55 13° W visible
08 Aug 5.0 21:11:53 10° NW 21:15:27 15° N 21:19:13 10° NNE visible
08 Aug 4.6 23:01:29 10° NNW 23:06:35 23° NNE 23:12:02 10° ENE visible
09 Aug 3.0 00:49:41 10° NW 00:56:27 63° NE 00:59:14 39° ESE visible
09 Aug 3.5 02:38:40 10° NW 02:44:20 34° WSW 02:44:20 34° WSW visible
09 Aug 4.9 21:46:24 10° NNW 21:50:21 17° N 21:54:31 10° NE visible
09 Aug 4.0 23:35:01 10° NNW 23:41:02 34° NE 23:45:49 17° E visible
